Wind_Speed
5 5 3 4 4 4 4 3 4 4 4 3 5 10 12 12 8 10 9 6 2 4 7 8 7 6 7 7 9 11 12 15 13 16 23 28 33 35 38 45 48 48 50 50
2 5 5 3 2 2 1 1 2 2 7 10 7 7 6 3 3 5 7 5 6 3 4 6 4 5 8 11 11 10 10 11 13 17 23 29 33 36 40 46 48 47 48 47
1 2 4 2 1 1 3 6 8 10 11 10 2 2 2 2 5 12 11 11 10 8 6 6 8 7 10 13 12 10 10 11 14 19 26 30 34 39 42 48 46 48 49 50
5 5 5 3 4 2 6 8 10 10 17 4 5 4 8 8 8 8 6 6 9 15 19 20 18 12 13 12 11 12 14 13 18 24 27 31 37 42 47 48 47 50 51 51
6 6 6 6 1 4 5 10 13 14 9 7 11 1 7 10 8 4 3 4 8 12 18 19 20 18 14 14 15 11 14 16 21 25 29 35 40 45 48 48 48 51 50 52
10 8 3 2 3 4 7 14 5 1 4 4 15 1 9 12 6 2 2 5 11 12 17 21 20 18 15 16 14 14 18 23 24 27 32 38 43 46 48 47 50 51 52 53
10 4 5 3 2 5 9 14 8 5 6 3 9 4 1 10 7 5 5 8 12 14 23 20 18 16 15 15 18 22 25 25 27 31 37 40 44 47 48 50 52 53 56 49
9 6 5 2 3 4 10 12 5 1 1 6 3 1 2 7 8 8 8 9 13 16 20 16 18 16 15 12 19 24 25 25 30 34 38 42 44 46 49 51 54 57 55 43
7 6 6 4 1 5 6 5 5 1 2 2 2 3 7 8 12 13 12 13 16 17 19 17 16 15 14 16 21 24 25 29 33 36 39 41 43 46 48 50 52 52 45 38
7 6 11 5 4 4 4 4 4 3 1 3 3 5 9 11 13 14 15 18 17 18 17 16 16 17 15 18 24 29 31 33 34 36 38 40 43 46 49 51 53 46 38 38
11 9 7 8 6 6 7 5 3 2 3 5 1 4 12 13 13 13 16 19 16 15 16 16 16 18 16 21 29 29 30 33 35 37 39 41 44 48 50 52 48 42 38 38
12 8 8 8 5 3 2 3 3 5 4 6 7 15 9 12 12 15 19 17 14 17 15 16 18 18 18 25 28 31 30 33 36 39 40 43 45 49 51 49 43 39 38 36
12 5 5 4 5 6 5 3 6 10 11 10 4 13 17 14 17 15 17 13 17 15 14 16 21 17 22 31 33 30 33 37 40 43 43 45 47 51 52 46 39 37 36 32
6 6 6 5 4 6 7 10 13 18 14 15 20 21 18 17 14 10 10 16 13 14 15 21 20 20 28 33 31 34 35 38 42 47 49 47 49 52 51 44 38 37 32 28
9 7 6 5 6 8 11 12 14 17 16 17 20 16 14 13 7 9 11 13 12 13 22 19 21 25 33 34 31 35 37 39 43 48 51 49 51 53 49 43 38 33 27 24
10 7 5 6 8 7 8 16 13 10 11 12 8 8 12 11 12 13 11 11 15 21 17 18 21 31 36 37 36 40 39 39 44 48 49 49 51 53 46 40 35 25 19 22
9 8 9 9 9 9 11 8 7 8 11 12 13 11 11 12 13 9 10 12 15 16 18 23 29 35 36 36 33 38 37 42 46 46 48 48 52 49 42 38 26 20 17 24
12 11 10 5 6 2 7 9 12 17 17 13 14 14 11 14 16 10 10 15 20 22 25 29 32 31 34 32 36 38 41 43 45 46 46 48 51 45 39 30 17 21 16 22
12 11 10 6 11 10 10 13 15 15 16 12 15 14 16 19 18 12 18 21 22 27 30 33 33 35 33 32 34 39 40 44 45 46 44 49 48 40 31 20 22 21 18 24
13 14 15 12 6 6 14 13 18 14 18 18 13 11 11 13 15 18 21 23 26 30 32 34 37 41 38 35 33 34 36 41 42 41 44 47 41 36 25 23 29 30 23 16
16 16 15 18 19 13 14 17 14 11 13 13 9 12 12 15 19 23 25 27 30 32 35 40 45 46 35 32 30 29 34 37 38 40 46 42 36 27 27 34 25 14 6 7
15 18 20 19 18 15 16 16 15 14 17 15 15 13 16 20 22 23 28 30 32 37 42 42 35 31 25 26 29 31 33 37 36 42 44 38 30 29 32 23 13 8 12 10
11 13 15 16 16 14 9 11 13 15 16 16 17 18 22 23 23 29 30 33 37 39 37 35 31 24 23 23 29 29 32 34 36 42 39 33 29 31 24 15 16 12 10 4
15 15 16 17 18 16 14 16 15 16 16 19 20 23 21 24 29 32 34 36 35 35 30 27 23 20 22 25 24 26 31 30 36 40 34 27 29 27 17 11 14 12 11 14
18 16 16 15 14 13 13 13 15 16 16 19 22 21 25 26 30 33 34 34 33 29 27 24 21 21 21 22 22 26 27 29 35 36 29 24 26 24 16 12 12 9 8 7
20 19 20 17 17 19 21 24 22 22 21 19 20 22 25 28 30 32 32 29 30 29 26 22 22 21 21 21 22 25 23 29 32 31 24 21 22 19 15 13 9 8 7 6
Wind_Direction
120 140 45 85 93 58 93 77 92 77 50 335 302 302 286 284 288 277 288 259 202 254 261 283 276 317 339 325 335 332 325 305 292 287 290 306 310 311 314 317 317 315 315 313
106 120 31 142 149 131 288 248 357 337 343 331 320 302 289 286 175 153 146 165 178 172 229 268 276 311 315 340 340 333 316 290 286 286 299 308 311 310 313 318 317 314 315 315
9 267 141 159 219 236 298 348 350 337 326 324 210 75 60 70 137 145 133 122 116 86 73 44 21 5 349 340 338 328 320 295 299 298 306 305 304 308 312 315 314 317 319 319
71 93 158 164 169 273 319 321 327 322 312 305 261 179 169 168 160 151 116 96 73 52 38 25 17 4 343 333 332 328 310 300 302 306 307 304 307 312 313 317 319 320 319 318
132 135 166 163 154 341 331 326 315 314 326 101 38 189 198 192 185 168 133 39 32 30 22 14 13 7 346 337 343 329 322 313 316 315 307 311 312 313 317 318 318 316 317 320
150 141 141 85 28 41 7 349 318 352 133 39 359 294 203 188 200 217 292 27 5 7 0 352 359 0 348 345 349 337 323 323 314 310 311 312 313 316 317 315 314 316 319 321
152 134 108 56 312 352 344 10 19 19 16 250 3 11 15 207 219 237 333 344 348 352 350 341 352 353 347 355 0 353 344 329 316 312 312 314 315 315 315 315 317 319 320 322
155 153 169 94 15 20 33 36 66 216 263 294 338 30 321 215 239 277 291 314 332 331 330 342 350 352 349 341 340 345 337 319 314 315 318 318 318 318 319 320 321 322 321 320
151 165 185 174 301 337 352 15 352 291 257 301 312 333 328 265 271 270 286 297 314 315 334 343 349 343 336 330 343 342 332 325 325 325 324 323 322 320 320 321 321 321 321 316
208 187 205 206 214 296 308 300 300 302 138 282 276 308 313 316 316 298 301 298 291 325 336 341 341 337 323 336 342 342 337 333 331 328 327 327 326 325 324 324 324 322 319 316
218 219 206 221 245 285 303 294 291 282 256 189 238 262 310 307 306 298 288 276 294 334 337 329 333 321 319 332 334 339 338 334 333 333 332 331 330 328 327 327 325 322 320 320
224 213 188 212 234 302 300 317 320 335 298 267 275 302 333 315 289 289 267 275 324 330 323 325 322 309 319 331 338 336 340 341 339 336 333 332 331 331 330 329 326 323 322 322
225 204 156 167 225 239 247 286 314 317 313 300 274 299 323 322 318 298 258 304 323 311 315 327 313 306 326 338 334 332 338 339 341 340 335 334 334 333 333 329 326 323 323 320
217 242 236 244 259 283 272 286 311 310 298 300 296 308 316 319 313 277 292 331 312 301 321 328 305 307 323 333 333 336 335 337 336 338 337 334 335 335 334 329 326 326 324 321
238 239 248 265 273 274 276 291 304 302 302 291 304 308 322 333 333 329 319 322 314 315 325 314 302 313 325 333 334 334 332 333 334 333 336 333 334 335 333 328 329 328 325 323
235 247 246 272 267 269 273 306 313 312 311 296 294 324 324 325 333 324 310 317 328 329 318 307 308 331 330 328 330 331 330 324 330 330 332 333 333 334 331 328 328 329 319 318
266 262 275 262 253 264 300 290 308 317 320 304 298 311 320 322 331 313 293 316 339 333 324 314 318 326 326 325 323 324 322 323 326 327 330 331 332 333 331 329 329 325 314 338
251 262 259 249 252 226 285 304 311 307 309 285 290 300 313 330 323 306 307 336 345 340 331 326 321 316 321 319 316 322 318 321 323 327 329 330 333 333 331 329 326 312 310 316
244 237 249 246 254 272 270 297 316 302 302 289 298 298 305 315 312 317 315 327 329 329 324 320 315 314 322 316 316 315 321 323 327 329 329 333 333 332 335 336 322 324 330 326
243 240 257 255 245 224 291 293 308 291 281 293 299 307 316 331 326 321 319 322 321 315 313 310 311 317 318 318 318 314 321 328 331 330 333 334 333 338 337 326 319 312 307 315
249 255 268 268 267 269 274 286 283 272 302 296 301 305 308 311 313 315 316 316 315 312 310 311 312 313 317 319 322 328 330 331 331 333 336 335 340 344 331 326 329 340 27 69
264 267 270 267 265 267 272 258 264 286 291 293 304 301 298 305 308 316 316 311 309 308 307 309 316 321 325 330 329 332 332 332 334 337 336 341 345 338 342 350 16 47 88 82
273 277 275 268 272 270 257 237 277 282 280 284 292 298 299 301 304 310 308 306 310 314 320 324 326 329 324 322 326 329 331 333 336 340 341 348 346 347 358 32 50 80 101 78
285 284 272 270 269 261 257 265 275 282 292 294 295 297 301 306 305 306 312 314 319 324 327 327 334 325 325 324 326 330 332 335 340 342 346 350 355 1 11 47 63 67 74 104
277 276 274 268 264 260 263 273 280 288 289 285 283 295 302 303 306 310 315 321 321 329 328 335 329 322 320 320 329 332 332 338 345 345 352 358 6 9 11 67 75 71 72 69
263 272 268 268 277 285 289 291 286 284 282 279 293 302 304 305 312 318 320 327 325 331 330 331 327 321 317 321 331 331 335 340 348 348 356 359 11 13 28 59 58 66 75 82
Height
3202 3204 3204 3204 3203 3204 3204 3205 3204 3204 3203 3203 3202 3200 3199 3199 3199 3201 3204 3206 3208 3209 3209 3208 3208 3207 3205 3204 3200 3198 3195 3192 3191 3190 3189 3188 3184 3180 3175 3169 3163 3156 3149 3142
3203 3203 3203 3203 3203 3204 3205 3205 3204 3204 3203 3202 3200 3198 3198 3197 3197 3200 3202 3205 3207 3208 3208 3207 3205 3204 3204 3202 3199 3197 3194 3192 3190 3189 3187 3184 3179 3175 3169 3162 3155 3148 3141 3134
3200 3203 3203 3204 3204 3205 3205 3204 3203 3203 3201 3199 3199 3198 3198 3199 3199 3199 3201 3203 3206 3206 3206 3205 3203 3202 3201 3199 3196 3194 3192 3190 3188 3186 3182 3178 3174 3169 3162 3156 3149 3140 3132 3124
3201 3201 3203 3204 3205 3205 3205 3204 3202 3200 3199 3198 3198 3199 3199 3200 3200 3201 3202 3203 3203 3203 3202 3201 3200 3198 3196 3195 3193 3190 3188 3186 3184 3181 3177 3172 3167 3161 3154 3146 3138 3131 3123 3116
3202 3202 3203 3204 3205 3205 3205 3203 3201 3198 3196 3197 3197 3198 3197 3199 3201 3202 3202 3202 3202 3201 3200 3199 3197 3194 3193 3191 3188 3186 3183 3180 3178 3174 3171 3166 3159 3151 3144 3136 3129 3122 3115 3106
3201 3203 3204 3204 3205 3205 3204 3201 3198 3197 3197 3198 3198 3197 3198 3198 3200 3201 3201 3201 3200 3199 3198 3196 3193 3192 3189 3186 3183 3181 3178 3175 3172 3169 3164 3158 3149 3142 3134 3127 3120 3111 3103 3096
3202 3204 3204 3205 3205 3205 3203 3200 3199 3201 3201 3202 3199 3199 3198 3198 3199 3200 3200 3199 3199 3197 3195 3193 3191 3188 3185 3182 3179 3177 3174 3171 3167 3163 3156 3148 3141 3134 3127 3119 3110 3101 3092 3085
3202 3205 3205 3205 3205 3204 3202 3202 3203 3205 3207 3202 3199 3199 3199 3198 3198 3198 3198 3197 3196 3195 3193 3190 3188 3185 3182 3179 3176 3173 3169 3165 3161 3154 3148 3142 3135 3127 3119 3111 3102 3093 3085 3078
3201 3203 3203 3204 3204 3204 3202 3203 3204 3202 3203 3202 3200 3200 3198 3197 3197 3196 3195 3195 3193 3191 3190 3187 3185 3182 3179 3176 3173 3168 3164 3160 3154 3148 3142 3135 3128 3120 3111 3102 3093 3085 3078 3072
3200 3202 3202 3203 3203 3203 3202 3203 3202 3202 3203 3203 3198 3197 3197 3196 3195 3194 3193 3191 3190 3189 3187 3184 3182 3179 3176 3172 3168 3164 3159 3154 3149 3142 3135 3128 3120 3111 3104 3095 3087 3079 3072 3066
3198 3200 3203 3202 3202 3202 3202 3201 3201 3201 3201 3200 3201 3196 3194 3192 3191 3189 3189 3188 3188 3186 3184 3181 3178 3175 3172 3169 3164 3160 3154 3149 3143 3136 3129 3122 3114 3106 3097 3088 3079 3072 3066 3060
3197 3198 3199 3201 3201 3201 3201 3201 3201 3200 3200 3198 3196 3193 3191 3190 3188 3187 3186 3186 3186 3184 3181 3179 3176 3172 3169 3165 3160 3155 3150 3145 3138 3132 3125 3117 3109 3100 3090 3081 3073 3065 3060 3054
3196 3197 3198 3200 3202 3201 3200 3200 3200 3199 3198 3196 3195 3191 3188 3187 3185 3183 3183 3184 3182 3180 3178 3176 3173 3169 3166 3162 3157 3151 3145 3139 3133 3127 3120 3112 3103 3093 3084 3075 3067 3060 3054 3049
3194 3195 3196 3198 3198 3199 3199 3198 3197 3196 3195 3192 3189 3186 3185 3183 3181 3182 3182 3181 3179 3178 3176 3173 3170 3168 3163 3158 3152 3147 3141 3135 3128 3121 3114 3105 3096 3086 3077 3068 3061 3054 3048 3043
3193 3193 3195 3195 3196 3196 3196 3196 3195 3193 3192 3189 3187 3184 3182 3181 3180 3180 3179 3178 3177 3176 3174 3170 3167 3164 3160 3154 3148 3142 3136 3130 3123 3115 3107 3099 3089 3079 3070 3062 3055 3048 3043 3039
3191 3191 3192 3193 3193 3194 3194 3193 3191 3190 3188 3186 3184 3183 3182 3180 3179 3178 3177 3177 3175 3173 3170 3168 3165 3161 3156 3150 3144 3137 3131 3125 3117 3109 3101 3092 3083 3073 3064 3057 3050 3044 3040 3036
3190 3190 3191 3191 3191 3191 3192 3190 3189 3188 3186 3185 3183 3182 3180 3179 3178 3177 3176 3175 3173 3170 3167 3165 3161 3156 3150 3145 3139 3133 3126 3119 3111 3102 3094 3085 3076 3067 3058 3051 3044 3040 3037 3033
3188 3189 3189 3189 3189 3190 3188 3187 3186 3185 3183 3182 3181 3180 3178 3177 3176 3175 3174 3172 3169 3166 3164 3161 3156 3150 3145 3139 3134 3128 3121 3113 3105 3096 3088 3078 3069 3060 3053 3045 3041 3037 3033 3031
3185 3186 3186 3187 3186 3186 3185 3185 3184 3181 3181 3179 3178 3177 3176 3175 3174 3174 3171 3168 3166 3162 3159 3155 3150 3145 3139 3134 3129 3122 3115 3107 3098 3090 3081 3072 3063 3055 3047 3042 3037 3032 3029 3027
3183 3183 3184 3183 3183 3183 3183 3181 3180 3178 3177 3176 3175 3175 3174 3173 3172 3171 3167 3164 3162 3158 3154 3149 3145 3139 3133 3128 3122 3116 3109 3101 3093 3085 3077 3068 3058 3049 3044 3038 3032 3028 3025 3024
3179 3179 3179 3179 3178 3178 3179 3178 3178 3178 3179 3173 3173 3172 3172 3170 3169 3167 3164 3160 3157 3153 3148 3143 3137 3131 3125 3120 3115 3110 3104 3096 3088 3081 3072 3062 3053 3047 3041 3033 3025 3023 3022 3022
3177 3177 3176 3176 3175 3175 3175 3175 3176 3175 3171 3171 3171 3170 3169 3168 3165 3163 3160 3157 3153 3148 3142 3136 3130 3124 3119 3115 3110 3105 3099 3092 3084 3077 3068 3058 3051 3045 3038 3029 3026 3024 3025 3025
3173 3173 3174 3174 3172 3170 3170 3171 3171 3170 3169 3169 3168 3168 3166 3165 3162 3159 3156 3152 3147 3140 3134 3128 3123 3118 3114 3110 3106 3100 3095 3088 3082 3074 3065 3056 3050 3043 3036 3032 3030 3028 3028 3029
3167 3167 3167 3168 3168 3168 3168 3168 3167 3167 3167 3167 3166 3164 3163 3161 3158 3153 3149 3144 3138 3133 3127 3122 3118 3114 3110 3106 3101 3096 3091 3086 3080 3071 3063 3057 3050 3044 3039 3036 3034 3033 3032 3033
3163 3163 3163 3163 3164 3164 3164 3165 3165 3165 3164 3163 3162 3161 3159 3156 3151 3146 3142 3138 3132 3127 3122 3119 3114 3110 3106 3102 3098 3093 3089 3084 3078 3069 3063 3057 3052 3046 3042 3039 3038 3037 3037 3036
3157 3159 3160 3159 3160 3161 3161 3161 3161 3160 3159 3158 3158 3156 3153 3149 3145 3141 3136 3132 3126 3122 3118 3115 3110 3106 3103 3099 3095 3091 3087 3082 3076 3069 3063 3059 3054 3051 3046 3043 3042 3041 3040 3039